SCP
0 0 0 0 0 0 0 0 -0 0 0 0 0 0 0 0 0 0 0 0 0 0 0 0 0 0 -0 0 0 0 0 0 0 0 0 0 0 0 0 0 0 0 0 0
0 0 0 0 0 0 0 0 0 0 0 0 0 0 0 0 0 0 0 0 0 -0 0 0 0 0 0 0 0 0 0 0 0 0 0 0 0 0 0 0 0 0 0 0
0 0 0 0 0 0 0 0 0 -0 0 0 0 0 0 0 0 0 0 -0 0 0 0 0 0 0 0 0 0 0 0 0 0 0 0 0 0 0 0 0 0 0 0 0
0 0 0 0 0 0 0 0 0 0 -0 0 0 0 0 0 0 0 0 0 -0 0 0 0 0 0 0 0 0 0 0 0 0 0 0 0 0 0 0 0 0 0 0 0
0 0 0 0 0 0 0 0 0 0 -0 0 0 0 0 0 0 0 0 -0 -0 0 0 0 0 0 0 0 0 0 0 0 0 0 0 0 0 0 0 0 0 0 0 0
0 0 0 0 0 0 0 0 0 -0 -0 -0 0 0 0 0 0 0 0 -0 0 0 0 0 0 0 0 0 0 0 0 0 0 0 0 0 0 0 0 0 0 0 0 0
0 0 0 0 0 0 0 0 0 -0 -0 -0 0 0 0 0 0 0 0 -0 0 0 0 0 0 0 0 0 0 0 0 0 0 0 0 0 0 0 0 0 0 0 0 -0
0 0 0 0 0 0 0 0 0 -0 -0 0 0 -0 0 0 0 -0 -0 -0 0 0 0 0 0 0 0 0 0 0 0 0 0 0 0 0 0 0 0 0 0 0 -0 -0
0 0 0 0 0 0 0 0 0 -0 -0 -0 -0 -0 -0 0 0 -0 -0 -0 0 0 0 0 0 0 0 0 0 0 0 0 0 0 0 0 0 0 0 0 0 0 -0 -0
0 0 0 0 0 0 0 0 0 -0 -0 -0 -0 0 -0 0 0 0 0 -0 0 0 0 0 0 0 0 0 0 0 0 0 0 0 0 0 0 0 0 0 0 0 0 -0
0 0 0 0 0 0 0 0 0 0 -0 -0 -0 0 0 0 0 0 -0 0 0 0 0 0 0 0 0 0 0 0 0 0 0 0 0 0 0 0 0 0 0 0 -0 0
0 0 0 0 0 0 0 0 0 0 -0 0 0 -0 -0 -0 -0 0 0 0 -0 0 0 0 0 0 0 0 0 0 0 0 0 0 0 0 0 0 0 0 0 0 -0 -0
-0 0 -0 0 0 0 0 0 0 0 -0 -0 -0 -0 -0 -0 -0 0 0 0 -0 0 0 0 0 0 0 0 0 0 0 0 0 0 0 0 0 0 0 0 -0 -0 -0 -0
-0 -0 -0 0 -0 0 0 0 0 0 0 -0 -0 -0 -0 -0 0 -0 -0 0 -0 -0 0 0 0 0 0 0 0 0 0 0 0 0 0 0 0 0 0 0 -0 -0 0 0
-0 -0 -0 -0 -0 0 0 0 0 0 0 -0 0 -0 -0 -0 -0 -0 -0 -0 -0 -0 0 0 0 0 0 0 0 0 0 0 0 0 0 0 0 0 0 -0 0 0 0 0
-0 -0 -0 -0 -0 0 0 0 0 0 0 -0 -0 -0 -0 -0 -0 -0 -0 -0 0 -0 -0 0 0 0 0 0 0 0 0 0 0 0 0 0 0 -0 -0 -0 0 0 0 0
-0 -0 -0 -0 0 0 0 0 0 0 0 0 -0 -0 -0 -0 -0 -0 -0 -0 0 -0 -0 0 0 0 0 0 0 0 0 0 0 0 0 0 0 0 0 0 0 0 0 0
-0 -0 -0 -0 0 0 0 0 0 0 0 0 -0 -0 -0 0 0 0 -0 -0 -0 -0 0 0 0 0 0 0 0 0 0 0 0 0 0 0 0 0 0 0 0 0 0 0
-0 -0 -0 0 0 0 0 0 0 0 0 0 0 0 -0 0 0 0 0 0 -0 0 0 -0 0 0 0 0 -0 0 0 0 0 0 0 0 0 0 0 0 0 0 0 0
-0 0 0 0 0 -0 0 0 0 0 0 0 0 0 0 0 0 0 0 0 0 0 0 0 -0 0 0 0 0 0 0 0 0 -0 0 0 0 0 0 0 0 0 0 0
0 0 0 0 0 0 0 0 0 0 0 0 0 0 0 0 0 0 0 0 0 0 0 0 0 0 0 0 0 0 0 0 0 0 0 0 0 0 0 0 0 0 0 0
0 0 0 0 0 0 0 0 0 0 0 0 0 -0 0 0 0 0 0 0 0 0 0 0 0 0 0 0 0 0 0 0 0 0 0 0 0 0 0 0 0 0 0 0
0 0 0 0 0 0 0 0 0 0 0 0 0 0 0 0 0 0 0 0 0 0 0 0 0 0 0 0 0 0 0 0 0 0 0 0 0 0 0 0 0 0 0 0
0 0 0 0 0 0 0 0 0 0 0 0 0 0 0 0 0 0 0 0 0 0 0 0 0 0 0 0 0 0 0 0 0 0 0 0 0 0 0 0 0 0 0 0
0 0 0 0 0 0 0 0 0 0 0 0 0 0 0 0 0 0 0 0 0 0 0 0 0 0 0 0 0 0 0 0 0 0 0 0 -0 0 0 0 0 0 0 0
0 0 0 0 0 0 0 0 0 0 0 0 0 0 0 0 0 0 0 0 0 0 0 0 0 0 0 0 0 0 0 0 -0 -0 -0 -0 -0 -0 -0 0 0 0 0 0
0 0 0 0 0 0 0 0 0 0 0 0 0 0 0 0 0 0 0 0 0 0 0 0 0 0 0 0 0 0 0 0 -0 -0 -0 -0 -0 -0 0 0 0 0 0 0
Wind_Speed_500mb
63 68 74 77 80 84 80 25 6 29 50 7 7 8 27 29 23 8 3 5 6 3 7 3 8 7 19 39 5 6 1 7 22 22 5 21 11 16 11 10 2 6 8 7
60 64 71 76 75 68 65 26 12 19 40 10 16 14 19 16 26 28 3 3 6 2 4 1 6 11 16 56 14 10 11 1 11 9 9 6 12 10 11 13 7 9 10 8
57 62 65 73 75 60 40 16 9 15 17 22 19 16 12 26 42 16 16 14 8 3 2 1 6 6 11 34 32 35 9 7 12 14 17 13 15 12 9 13 9 10 10 10
53 58 61 68 71 64 35 24 7 11 14 20 30 21 13 29 22 10 29 11 21 5 4 3 8 8 3 44 26 8 6 8 8 7 21 13 10 17 16 11 13 13 12 18
52 53 55 62 66 69 33 17 14 12 15 30 26 15 27 27 40 15 24 29 21 18 8 10 3 11 8 6 9 5 7 5 2 16 17 21 12 6 24 14 14 15 15 7
52 52 51 53 58 62 26 35 38 15 15 19 18 18 28 33 39 15 26 36 11 11 6 11 7 12 7 6 7 4 7 8 6 7 6 14 12 6 2 7 7 17 12 12
50 50 48 47 49 48 39 34 32 13 8 13 18 26 38 40 37 28 25 56 10 21 12 10 3 5 6 12 13 2 9 7 7 5 6 10 10 4 4 12 9 8 23 32
49 49 44 44 44 45 40 21 23 15 11 22 23 38 21 46 52 34 16 64 20 19 1 2 6 8 8 15 14 13 7 10 9 8 7 2 7 8 4 3 3 5 40 30
47 46 42 42 44 41 38 9 25 23 14 8 31 23 30 15 26 26 28 82 38 29 4 5 7 6 4 7 7 9 13 16 10 6 11 6 7 8 22 5 5 11 33 34
44 43 40 39 40 40 35 15 24 23 13 19 34 8 16 25 25 12 16 38 28 44 9 7 8 5 2 5 7 7 9 8 10 9 7 6 8 14 24 9 8 34 35 45
41 42 38 36 36 37 32 10 26 31 14 42 17 41 41 36 27 10 33 13 12 8 11 5 5 6 4 5 6 4 7 8 5 7 7 3 9 9 1 6 12 48 52 45
40 40 36 32 33 34 30 26 30 40 16 30 41 26 33 41 32 34 15 5 5 7 4 4 2 5 5 6 5 8 7 5 9 5 3 10 12 2 5 17 42 39 60 60
38 36 32 30 30 30 28 33 28 45 15 26 14 26 39 44 53 30 10 7 14 20 22 3 1 10 5 4 5 5 8 2 8 6 15 12 29 37 44 47 54 58 62 69
38 34 30 28 27 26 27 29 16 36 16 7 14 30 41 48 40 35 24 9 4 41 26 10 6 6 11 6 5 6 6 7 12 20 17 37 44 47 59 65 66 68 63 68
36 35 29 26 25 23 26 15 10 28 20 8 26 31 44 52 36 30 43 23 22 27 15 7 6 6 7 5 5 10 11 5 5 7 25 31 19 51 65 67 63 60 68 65
34 36 28 24 24 22 22 5 9 29 30 10 8 20 29 58 35 32 40 38 46 12 9 7 10 9 5 5 6 25 43 43 30 19 47 49 46 56 51 61 57 55 53 47
35 37 28 19 16 15 8 5 17 31 30 5 10 18 24 54 31 32 29 32 25 9 10 10 9 26 18 6 8 28 41 50 54 54 52 38 45 43 45 42 40 36 37 34
35 35 22 13 12 13 5 8 22 28 11 5 3 8 17 37 19 22 31 25 17 26 9 9 9 10 10 10 8 27 41 36 33 28 37 48 46 43 44 38 32 29 29 24
30 22 11 7 6 4 4 21 18 10 5 4 3 3 7 27 16 13 14 15 8 10 6 7 7 7 10 9 14 12 6 16 38 43 42 39 38 34 28 22 19 16 16 10
23 12 3 4 4 12 12 6 5 3 2 3 1 6 6 17 12 11 15 11 4 6 6 7 7 5 15 17 26 36 42 43 38 43 32 28 28 22 17 13 10 6 3 5
12 7 3 3 6 4 3 4 5 7 5 8 8 6 6 10 5 5 9 2 4 5 7 6 4 3 5 17 31 30 28 28 32 29 24 16 12 9 7 6 8 10 13 16
14 12 10 5 2 1 2 3 6 3 3 7 6 11 11 11 8 4 8 4 4 3 3 6 4 2 21 31 38 34 29 26 26 22 19 14 10 10 11 14 16 18 18 20
5 4 5 3 3 8 4 3 4 5 4 3 10 10 8 7 5 3 4 6 2 0 6 3 4 20 30 33 33 30 23 20 20 18 17 15 15 15 16 17 16 16 17 18
5 3 7 5 4 6 7 6 6 5 6 9 14 8 4 7 7 2 4 3 2 4 3 3 4 38 39 32 28 23 20 15 15 16 17 18 19 19 17 15 15 16 16 16
7 5 6 9 6 6 7 6 5 5 6 9 7 4 3 5 5 4 4 4 4 3 2 5 25 42 40 34 27 20 14 12 12 15 17 19 19 17 15 12 10 10 8 5
7 9 5 8 2 4 7 8 8 3 2 3 0 2 3 2 2 5 3 4 3 5 3 13 44 46 39 34 28 21 17 14 16 17 16 15 14 11 9 7 6 7 9 10
6 8 12 15 18 17 8 4 3 8 7 3 2 2 2 3 2 1 1 4 5 9 13 36 45 41 37 31 24 18 16 16 18 20 15 12 15 17 12 8 11 11 14 14
Wind_Direction_500mb
354 353 356 360 0 351 359 6 17 358 360 6 320 319 307 298 312 330 349 302 278 313 338 48 65 250 162 213 176 116 3 101 159 170 222 147 146 163 123 117 158 69 123 283
354 353 355 358 3 358 350 342 302 356 3 8 353 315 310 327 319 330 92 306 304 248 5 244 124 215 170 183 198 217 147 85 103 97 26 66 133 128 113 108 92 167 122 257
355 354 355 356 1 4 359 359 2 340 6 353 338 326 325 336 328 315 338 25 166 290 238 151 273 27 54 169 210 236 87 115 143 184 150 123 120 129 149 123 113 157 210 140
355 355 357 357 359 10 18 18 359 351 321 341 334 332 306 336 345 325 345 348 19 12 49 120 6 358 90 173 211 37 65 93 89 28 128 108 129 155 155 151 161 151 196 153
356 354 358 360 2 6 33 13 344 322 294 315 328 338 352 334 346 327 334 351 4 20 64 25 357 312 35 174 17 76 356 126 43 46 78 118 81 73 179 185 124 81 125 117
355 353 356 1 5 8 7 355 350 303 304 335 339 337 340 332 335 309 324 339 329 30 1 309 293 272 282 120 80 109 59 115 50 80 24 99 52 347 208 126 116 139 175 140
355 354 355 0 4 5 4 353 345 316 308 332 332 311 323 335 334 334 328 354 353 336 349 117 118 295 32 82 51 25 107 78 47 103 45 60 249 296 193 108 99 107 106 142
353 353 354 357 0 359 360 352 353 334 315 306 308 331 320 329 344 354 349 353 354 347 345 97 59 0 56 15 46 16 63 110 67 96 61 157 33 356 15 39 327 75 144 151
351 353 354 355 357 359 359 359 349 344 303 278 322 318 322 331 339 341 352 357 8 22 46 70 66 77 186 28 23 27 63 64 96 73 92 128 235 290 317 196 52 124 144 146
350 350 353 353 354 358 2 8 354 350 295 292 320 313 320 320 329 307 313 352 345 9 6 47 42 77 20 56 74 4 35 23 86 83 96 301 261 295 323 95 211 127 140 151
347 346 348 348 349 352 359 345 349 346 299 297 305 317 306 320 327 327 320 340 5 347 25 22 5 62 25 49 47 36 90 104 84 95 91 110 335 323 150 224 131 138 138 142
344 344 346 348 346 347 351 356 346 340 274 284 319 349 352 339 339 305 307 286 275 296 285 303 313 79 42 22 83 15 57 145 131 91 214 317 342 138 56 176 133 133 138 143
339 341 346 347 343 342 339 342 348 356 313 316 339 351 2 3 354 346 278 321 359 358 344 293 81 83 354 66 56 88 25 93 90 108 360 22 59 90 107 136 127 135 142 145
334 336 338 338 340 339 334 336 350 2 328 318 295 340 359 4 3 6 355 266 147 24 13 29 40 79 9 39 13 66 316 22 117 95 119 78 61 80 98 104 123 126 130 136
326 329 331 330 332 336 334 319 335 355 7 289 293 334 1 6 7 26 38 75 103 50 28 3 35 55 42 17 37 22 1 93 87 100 85 104 88 98 111 111 110 119 127 124
322 324 322 321 325 331 336 323 19 359 348 311 311 324 339 2 15 24 34 46 61 55 79 4 18 12 88 58 61 36 63 84 101 95 105 104 101 95 92 101 109 115 115 115
320 320 313 308 310 325 325 337 327 342 339 309 300 321 343 356 2 7 10 24 43 65 67 52 26 11 47 41 50 53 73 85 92 101 108 82 94 99 113 116 120 125 122 119
317 319 304 293 294 302 285 269 316 324 325 316 352 290 331 357 349 348 354 354 26 30 45 36 26 35 59 51 46 79 85 92 87 95 116 115 113 111 105 107 113 112 113 117
319 318 299 282 262 295 266 305 316 316 307 349 18 338 293 343 354 343 337 353 33 20 49 13 42 10 47 351 126 96 124 121 121 118 115 116 112 113 114 117 114 113 116 122
319 311 254 206 237 300 296 288 300 284 320 348 255 332 291 335 336 340 360 15 19 40 349 29 47 53 31 75 107 110 116 118 122 116 107 110 106 104 103 88 81 57 26 329
324 311 265 260 306 289 271 300 9 328 10 4 354 338 306 335 9 299 14 265 350 58 303 85 79 356 41 110 109 109 108 107 97 99 98 89 76 61 31 357 334 323 315 311
327 329 313 355 46 360 62 323 318 2 260 346 354 331 308 308 321 354 349 19 9 69 319 71 85 192 138 129 117 110 96 83 80 73 69 63 41 10 342 327 318 315 312 310
345 314 311 330 105 37 197 278 296 313 258 352 342 335 312 300 315 316 18 46 235 346 45 102 179 152 153 140 129 117 101 76 57 52 40 23 13 356 342 332 322 315 310 306
258 255 310 176 211 227 192 184 196 261 263 330 344 322 326 317 341 360 13 316 93 94 115 224 201 163 159 154 145 129 107 72 48 26 9 355 347 345 341 332 320 313 309 310
235 206 235 220 243 211 189 203 224 248 275 297 304 306 300 313 330 8 345 28 11 322 289 196 175 170 168 162 153 136 113 90 51 25 8 359 357 353 346 336 326 333 349 48
229 232 264 246 303 260 227 233 261 270 262 155 264 337 344 300 348 32 6 77 273 264 346 163 163 169 171 165 160 149 131 93 63 46 38 42 37 29 27 29 71 54 83 101
226 258 251 263 277 263 270 269 147 157 133 43 105 241 139 8 121 114 64 232 234 275 171 166 169 169 167 165 161 149 131 89 65 50 44 35 37 39 38 73 82 79 93 117
Wind_Speed_850mb
63 68 74 77 80 84 80 25 6 29 50 7 7 8 27 29 23 8 3 5 6 3 7 3 8 7 19 39 5 6 1 7 22 22 5 21 11 16 11 10 2 6 8 7
60 64 71 76 75 68 65 26 12 19 40 10 16 14 19 16 26 28 3 3 6 2 4 1 6 11 16 56 14 10 11 1 11 9 9 6 12 10 11 13 7 9 10 8
57 62 65 73 75 60 40 16 9 15 17 22 19 16 12 26 42 16 16 14 8 3 2 1 6 6 11 34 32 35 9 7 12 14 17 13 15 12 9 13 9 10 10 10
53 58 61 68 71 64 35 24 7 11 14 20 30 21 13 29 22 10 29 11 21 5 4 3 8 8 3 44 26 8 6 8 8 7 21 13 10 17 16 11 13 13 12 18
52 53 55 62 66 69 33 17 14 12 15 30 26 15 27 27 40 15 24 29 21 18 8 10 3 11 8 6 9 5 7 5 2 16 17 21 12 6 24 14 14 15 15 7
52 52 51 53 58 62 26 35 38 15 15 19 18 18 28 33 39 15 26 36 11 11 6 11 7 12 7 6 7 4 7 8 6 7 6 14 12 6 2 7 7 17 12 12
50 50 48 47 49 48 39 34 32 13 8 13 18 26 38 40 37 28 25 56 10 21 12 10 3 5 6 12 13 2 9 7 7 5 6 10 10 4 4 12 9 8 23 32
49 49 44 44 44 45 40 21 23 15 11 22 23 38 21 46 52 34 16 64 20 19 1 2 6 8 8 15 14 13 7 10 9 8 7 2 7 8 4 3 3 5 40 30
47 46 42 42 44 41 38 9 25 23 14 8 31 23 30 15 26 26 28 82 38 29 4 5 7 6 4 7 7 9 13 16 10 6 11 6 7 8 22 5 5 11 33 34
44 43 40 39 40 40 35 15 24 23 13 19 34 8 16 25 25 12 16 38 28 44 9 7 8 5 2 5 7 7 9 8 10 9 7 6 8 14 24 9 8 34 35 45
41 42 38 36 36 37 32 10 26 31 14 42 17 41 41 36 27 10 33 13 12 8 11 5 5 6 4 5 6 4 7 8 5 7 7 3 9 9 1 6 12 48 52 45
40 40 36 32 33 34 30 26 30 40 16 30 41 26 33 41 32 34 15 5 5 7 4 4 2 5 5 6 5 8 7 5 9 5 3 10 12 2 5 17 42 39 60 60
38 36 32 30 30 30 28 33 28 45 15 26 14 26 39 44 53 30 10 7 14 20 22 3 1 10 5 4 5 5 8 2 8 6 15 12 29 37 44 47 54 58 62 69
38 34 30 28 27 26 27 29 16 36 16 7 14 30 41 48 40 35 24 9 4 41 26 10 6 6 11 6 5 6 6 7 12 20 17 37 44 47 59 65 66 68 63 68
36 35 29 26 25 23 26 15 10 28 20 8 26 31 44 52 36 30 43 23 22 27 15 7 6 6 7 5 5 10 11 5 5 7 25 31 19 51 65 67 63 60 68 65
34 36 28 24 24 22 22 5 9 29 30 10 8 20 29 58 35 32 40 38 46 12 9 7 10 9 5 5 6 25 43 43 30 19 47 49 46 56 51 61 57 55 53 47
35 37 28 19 16 15 8 5 17 31 30 5 10 18 24 54 31 32 29 32 25 9 10 10 9 26 18 6 8 28 41 50 54 54 52 38 45 43 45 42 40 36 37 34
35 35 22 13 12 13 5 8 22 28 11 5 3 8 17 37 19 22 31 25 17 26 9 9 9 10 10 10 8 27 41 36 33 28 37 48 46 43 44 38 32 29 29 24
30 22 11 7 6 4 4 21 18 10 5 4 3 3 7 27 16 13 14 15 8 10 6 7 7 7 10 9 14 12 6 16 38 43 42 39 38 34 28 22 19 16 16 10
23 12 3 4 4 12 12 6 5 3 2 3 1 6 6 17 12 11 15 11 4 6 6 7 7 5 15 17 26 36 42 43 38 43 32 28 28 22 17 13 10 6 3 5
12 7 3 3 6 4 3 4 5 7 5 8 8 6 6 10 5 5 9 2 4 5 7 6 4 3 5 17 31 30 28 28 32 29 24 16 12 9 7 6 8 10 13 16
14 12 10 5 2 1 2 3 6 3 3 7 6 11 11 11 8 4 8 4 4 3 3 6 4 2 21 31 38 34 29 26 26 22 19 14 10 10 11 14 16 18 18 20
5 4 5 3 3 8 4 3 4 5 4 3 10 10 8 7 5 3 4 6 2 0 6 3 4 20 30 33 33 30 23 20 20 18 17 15 15 15 16 17 16 16 17 18
5 3 7 5 4 6 7 6 6 5 6 9 14 8 4 7 7 2 4 3 2 4 3 3 4 38 39 32 28 23 20 15 15 16 17 18 19 19 17 15 15 16 16 16
7 5 6 9 6 6 7 6 5 5 6 9 7 4 3 5 5 4 4 4 4 3 2 5 25 42 40 34 27 20 14 12 12 15 17 19 19 17 15 12 10 10 8 5
7 9 5 8 2 4 7 8 8 3 2 3 0 2 3 2 2 5 3 4 3 5 3 13 44 46 39 34 28 21 17 14 16 17 16 15 14 11 9 7 6 7 9 10
6 8 12 15 18 17 8 4 3 8 7 3 2 2 2 3 2 1 1 4 5 9 13 36 45 41 37 31 24 18 16 16 18 20 15 12 15 17 12 8 11 11 14 14
Wind_Direction_850mb
354 353 356 360 0 351 359 6 17 358 360 6 320 319 307 298 312 330 349 302 278 313 338 48 65 250 162 213 176 116 3 101 159 170 222 147 146 163 123 117 158 69 123 283
354 353 355 358 3 358 350 342 302 356 3 8 353 315 310 327 319 330 92 306 304 248 5 244 124 215 170 183 198 217 147 85 103 97 26 66 133 128 113 108 92 167 122 257
355 354 355 356 1 4 359 359 2 340 6 353 338 326 325 336 328 315 338 25 166 290 238 151 273 27 54 169 210 236 87 115 143 184 150 123 120 129 149 123 113 157 210 140
355 355 357 357 359 10 18 18 359 351 321 341 334 332 306 336 345 325 345 348 19 12 49 120 6 358 90 173 211 37 65 93 89 28 128 108 129 155 155 151 161 151 196 153
356 354 358 360 2 6 33 13 344 322 294 315 328 338 352 334 346 327 334 351 4 20 64 25 357 312 35 174 17 76 356 126 43 46 78 118 81 73 179 185 124 81 125 117
355 353 356 1 5 8 7 355 350 303 304 335 339 337 340 332 335 309 324 339 329 30 1 309 293 272 282 120 80 109 59 115 50 80 24 99 52 347 208 126 116 139 175 140
355 354 355 0 4 5 4 353 345 316 308 332 332 311 323 335 334 334 328 354 353 336 349 117 118 295 32 82 51 25 107 78 47 103 45 60 249 296 193 108 99 107 106 142
353 353 354 357 0 359 360 352 353 334 315 306 308 331 320 329 344 354 349 353 354 347 345 97 59 0 56 15 46 16 63 110 67 96 61 157 33 356 15 39 327 75 144 151
351 353 354 355 357 359 359 359 349 344 303 278 322 318 322 331 339 341 352 357 8 22 46 70 66 77 186 28 23 27 63 64 96 73 92 128 235 290 317 196 52 124 144 146
350 350 353 353 354 358 2 8 354 350 295 292 320 313 320 320 329 307 313 352 345 9 6 47 42 77 20 56 74 4 35 23 86 83 96 301 261 295 323 95 211 127 140 151
347 346 348 348 349 352 359 345 349 346 299 297 305 317 306 320 327 327 320 340 5 347 25 22 5 62 25 49 47 36 90 104 84 95 91 110 335 323 150 224 131 138 138 142
344 344 346 348 346 347 351 356 346 340 274 284 319 349 352 339 339 305 307 286 275 296 285 303 313 79 42 22 83 15 57 145 131 91 214 317 342 138 56 176 133 133 138 143
339 341 346 347 343 342 339 342 348 356 313 316 339 351 2 3 354 346 278 321 359 358 344 293 81 83 354 66 56 88 25 93 90 108 360 22 59 90 107 136 127 135 142 145
334 336 338 338 340 339 334 336 350 2 328 318 295 340 359 4 3 6 355 266 147 24 13 29 40 79 9 39 13 66 316 22 117 95 119 78 61 80 98 104 123 126 130 136
326 329 331 330 332 336 334 319 335 355 7 289 293 334 1 6 7 26 38 75 103 50 28 3 35 55 42 17 37 22 1 93 87 100 85 104 88 98 111 111 110 119 127 124
322 324 322 321 325 331 336 323 19 359 348 311 311 324 339 2 15 24 34 46 61 55 79 4 18 12 88 58 61 36 63 84 101 95 105 104 101 95 92 101 109 115 115 115
320 320 313 308 310 325 325 337 327 342 339 309 300 321 343 356 2 7 10 24 43 65 67 52 26 11 47 41 50 53 73 85 92 101 108 82 94 99 113 116 120 125 122 119
317 319 304 293 294 302 285 269 316 324 325 316 352 290 331 357 349 348 354 354 26 30 45 36 26 35 59 51 46 79 85 92 87 95 116 115 113 111 105 107 113 112 113 117
319 318 299 282 262 295 266 305 316 316 307 349 18 338 293 343 354 343 337 353 33 20 49 13 42 10 47 351 126 96 124 121 121 118 115 116 112 113 114 117 114 113 116 122
319 311 254 206 237 300 296 288 300 284 320 348 255 332 291 335 336 340 360 15 19 40 349 29 47 53 31 75 107 110 116 118 122 116 107 110 106 104 103 88 81 57 26 329
324 311 265 260 306 289 271 300 9 328 10 4 354 338 306 335 9 299 14 265 350 58 303 85 79 356 41 110 109 109 108 107 97 99 98 89 76 61 31 357 334 323 315 311
327 329 313 355 46 360 62 323 318 2 260 346 354 331 308 308 321 354 349 19 9 69 319 71 85 192 138 129 117 110 96 83 80 73 69 63 41 10 342 327 318 315 312 310
345 314 311 330 105 37 197 278 296 313 258 352 342 335 312 300 315 316 18 46 235 346 45 102 179 152 153 140 129 117 101 76 57 52 40 23 13 356 342 332 322 315 310 306
258 255 310 176 211 227 192 184 196 261 263 330 344 322 326 317 341 360 13 316 93 94 115 224 201 163 159 154 145 129 107 72 48 26 9 355 347 345 341 332 320 313 309 310
235 206 235 220 243 211 189 203 224 248 275 297 304 306 300 313 330 8 345 28 11 322 289 196 175 170 168 162 153 136 113 90 51 25 8 359 357 353 346 336 326 333 349 48
229 232 264 246 303 260 227 233 261 270 262 155 264 337 344 300 348 32 6 77 273 264 346 163 163 169 171 165 160 149 131 93 63 46 38 42 37 29 27 29 71 54 83 101
226 258 251 263 277 263 270 269 147 157 133 43 105 241 139 8 121 114 64 232 234 275 171 166 169 169 167 165 161 149 131 89 65 50 44 35 37 39 38 73 82 79 93 117